FW6455 Weather Reports


Display with metric or nautical units.
time (UTC)temp
F
wind
direction
speed
MPH
gust
MPH
rain 1hr
in
rain 24hr
in
rain mn
in
humidity
%
barometer
mb
20260905082039 79 0 0.0 0.0 0.00 0.00 0.00 77 1014.3
20260905081605 80 0 0.0 0.0 0.00 0.00 0.00 77 1014.4
20260905081038 80 0 0.0 0.0 0.00 0.00 0.00 77 1014.4
20260905080537 80 0 0.0 0.0 0.00 0.00 0.00 77 1014.3
20260905080109 80 0 0.0 0.0 0.00 0.00 0.00 77 1014.3
20260905075539 80 0 0.0 0.0 0.00 0.00 0.00 77 1014.4
20260905075038 80 0 0.0 0.0 0.00 0.00 0.00 77 1014.4
20260905074602 80 0 0.0 0.0 0.00 0.00 0.00 77 1014.5
20260905074036 80 0 0.0 0.0 0.00 0.00 0.00 77 1014.5
20260905073536 80 0 0.0 0.0 0.00 0.00 0.00 76 1014.5
20260905073108 80 0 0.0 0.0 0.00 0.00 0.00 76 1014.6
20260905072536 80 0 0.0 0.0 0.00 0.00 0.00 76 1014.8
20260905072037 80 0 0.0 0.0 0.00 0.00 0.00 76 1014.9
20260905071605 81 0 0.0 0.0 0.00 0.00 0.00 76 1014.9
20260905071040 81 0 0.0 0.0 0.00 0.00 0.00 76 1014.8
20260905070539 81 0 0.0 0.0 0.00 0.00 0.00 75 1015.0
20260905070118 81 0 0.0 0.0 0.00 0.00 0.00 75 1014.8
20260905065542 81 0 0.0 0.0 0.00 0.00 0.00 75 1015.0
20260905065036 81 0 0.0 0.0 0.00 0.00 0.00 75 1015.0
20260905064601 81 0 0.0 0.0 0.00 0.00 0.00 74 1015.0
20260905064037 82 0 0.0 0.0 0.00 0.00 0.00 74 1015.0
20260905063536 82 0 0.0 0.0 0.00 0.00 0.00 74 1015.0
20260905063059 82 0 0.0 0.0 0.00 0.00 0.00 74 1014.9
20260905062536 82 0 0.0 0.0 0.00 0.00 0.00 74 1014.9
20260905062039 82 0 0.0 0.0 0.00 0.00 0.00 73 1014.9
20260905061616 82 0 0.0 0.0 0.00 0.00 0.00 73 1015.0
20260905061041 82 0 0.0 0.0 0.00 0.00 0.00 73 1014.9
20260905060539 83 0 0.0 0.0 0.00 0.00 0.00 73 1015.0
20260905060104 83 0 0.0 0.0 0.00 0.00 0.00 72 1014.9
20260905055541 83 0 0.0 0.0 0.00 0.00 0.00 72 1015.0
20260905055039 83 0 0.0 0.0 0.00 0.00 0.00 72 1014.8
20260905054604 83 0 0.0 0.0 0.00 0.00 0.00 72 1014.8
20260905054039 83 0 0.0 0.0 0.00 0.00 0.00 71 1014.7
20260905053539 83 0 0.0 0.0 0.00 0.00 0.00 71 1014.7
20260905053112 83 0 0.0 0.0 0.00 0.00 0.00 71 1014.7
20260905052539 84 0 0.0 0.0 0.00 0.00 0.00 70 1014.7
20260905052036 84 0 0.0 0.0 0.00 0.00 0.00 70 1014.7
20260905051605 84 0 0.0 0.0 0.00 0.00 0.00 70 1014.7
20260905051039 84 0 0.0 0.0 0.00 0.00 0.00 69 1014.7
20260905050540 84 0 0.0 0.0 0.00 0.00 0.00 69 1014.6
20260905050108 85 0 0.0 0.0 0.00 0.00 0.00 69 1014.8
20260905045539 85 0 0.0 0.0 0.00 0.00 0.00 68 1014.9
20260905045043 85 0 0.0 0.0 0.00 0.00 0.00 68 1014.7
20260905044601 85 0 0.0 0.0 0.00 0.00 0.00 68 1014.7
20260905044042 85 0 0.0 0.0 0.00 0.00 0.00 67 1014.8
20260905043538 85 0 0.0 1.0 0.00 0.00 0.00 67 1014.8
20260905043059 86 190 0.0 1.0 0.00 0.00 0.00 67 1014.6
20260905042543 86 0 0.0 1.0 0.00 0.00 0.00 67 1014.7
20260905042039 86 193 0.0 1.0 0.00 0.00 0.00 66 1014.7
20260905041557 86 199 0.0 1.0 0.00 0.00 0.00 66 1014.6
20260905041039 86 188 0.0 1.0 0.00 0.00 0.00 66 1014.6
20260905040539 86 0 0.0 1.0 0.00 0.00 0.00 65 1014.7
20260905040107 86 188 0.0 1.0 0.00 0.00 0.00 65 1014.7
20260905035539 87 189 0.0 1.0 0.00 0.00 0.00 65 1014.8
20260905035037 87 0 0.0 1.0 0.00 0.00 0.00 65 1014.8
20260905034601 87 0 0.0 1.0 0.00 0.00 0.00 65 1014.8
20260905034041 87 179 0.0 1.0 0.00 0.00 0.00 65 1014.7
20260905033536 87 188 0.0 1.0 0.00 0.00 0.00 64 1014.9
20260905033101 87 188 0.0 1.0 0.00 0.00 0.00 64 1014.9
20260905032538 87 188 0.0 1.0 0.00 0.00 0.00 64 1014.8
20260905032039 87 178 0.0 2.0 0.00 0.00 0.00 64 1014.7
20260905031559 87 0 0.0 2.0 0.00 0.00 0.00 64 1014.7
20260905031036 87 185 0.0 2.0 0.00 0.00 0.00 63 1014.8
20260905030539 87 188 0.0 2.0 0.00 0.00 0.00 63 1014.8
20260905030107 87 160 0.0 1.0 0.00 0.00 0.00 63 1014.6
20260905025538 88 0 0.0 0.0 0.00 0.00 0.00 62 1014.6
20260905025039 88 197 0.0 0.0 0.00 0.00 0.00 62 1014.6
20260905024640 88 0 0.0 0.0 0.00 0.00 0.00 62 1014.4
20260905024040 88 0 0.0 0.0 0.00 0.00 0.00 61 1014.3
20260905023541 88 0 0.0 0.0 0.00 0.00 0.00 61 1014.4
20260905023059 88 0 0.0 0.0 0.00 0.00 0.00 60 1014.2
20260905022537 88 0 0.0 0.0 0.00 0.00 0.00 59 1014.2
20260905022042 88 0 0.0 0.0 0.00 0.00 0.00 59 1014.1
20260905021600 88 0 0.0 0.0 0.00 0.00 0.00 58 1013.9
20260905021040 88 170 0.0 1.0 0.00 0.00 0.00 58 1013.9
20260905020544 88 170 0.0 1.0 0.00 0.00 0.00 57 1013.9
20260905020106 89 0 0.0 0.0 0.00 0.00 0.00 55 1013.9
20260905015541 89 0 0.0 0.0 0.00 0.00 0.00 54 1013.7
20260905015042 89 0 0.0 1.0 0.00 0.00 0.00 54 1013.6
20260905014605 89 0 0.0 1.0 0.00 0.00 0.00 54 1013.4
20260905014041 89 0 0.0 1.0 0.00 0.00 0.00 53 1013.4
20260905013540 90 0 0.0 1.0 0.00 0.00 0.00 53 1013.5
20260905013103 90 116 0.0 1.0 0.00 0.00 0.00 52 1013.3
20260905012541 90 108 0.0 1.0 0.00 0.00 0.00 52 1013.3
20260905012041 90 0 0.0 1.0 0.00 0.00 0.00 51 1013.3
20260905011603 91 101 0.0 2.0 0.00 0.00 0.00 51 1013.4
20260905011041 91 109 0.0 2.0 0.00 0.00 0.00 51 1013.3
20260905010541 91 98 0.0 1.0 0.00 0.00 0.00 50 1013.2
20260905010103 91 0 0.0 1.0 0.00 0.00 0.00 50 1013.1
20260905005538 92 0 0.0 1.0 0.00 0.00 0.00 50 1013.1
20260905005040 92 107 0.0 2.0 0.00 0.00 0.00 50 1013.1
20260905004606 92 0 0.0 2.0 0.00 0.00 0.00 50 1013.0
20260905004042 92 0 0.0 1.0 0.00 0.00 0.00 50 1013.0
20260905003540 93 102 0.0 1.0 0.00 0.00 0.00 50 1012.8
20260905003103 93 202 0.0 1.0 0.00 0.00 0.00 50 1012.8
20260905002539 93 0 0.0 2.0 0.00 0.00 0.00 50 1012.9
20260905002039 93 198 0.0 2.0 0.00 0.00 0.00 51 1012.8
20260905001607 94 196 0.0 2.0 0.00 0.00 0.00 50 1012.8
20260905001042 94 125 0.0 5.0 0.00 0.00 0.00 50 1012.7
20260905000541 94 0 0.0 5.0 0.00 0.00 0.00 50 1012.8
20260905000108 94 0 1.0 5.0 0.00 0.00 0.00 49 1012.7
20260904235540 94 122 2.0 5.0 0.00 0.00 0.00 49 1012.7
20260904235039 95 89 1.0 2.0 0.00 0.00 0.00 49 1012.6
20260904234602 95 166 0.0 4.0 0.00 0.00 0.00 49 1012.7
20260904234041 95 87 1.0 5.0 0.00 0.00 0.00 50 1012.7
20260904233541 95 100 1.0 5.0 0.00 0.00 0.00 49 1012.8
20260904233104 95 103 1.0 4.0 0.00 0.00 0.00 50 1012.7
20260904232540 95 217 0.0 5.0 0.00 0.00 0.00 50 1012.7
20260904232043 95 93 1.0 5.0 0.00 0.00 0.00 50 1012.6
20260904231559 95 97 1.0 6.0 0.00 0.00 0.00 49 1012.6
20260904231039 95 101 2.0 8.0 0.00 0.00 0.00 49 1012.7
20260904230536 96 115 1.0 8.0 0.00 0.00 0.00 49 1012.7
20260904230058 96 77 0.0 5.0 0.00 0.00 0.00 49 1012.7
20260904225535 96 132 1.0 5.0 0.00 0.00 0.00 49 1012.5
20260904225037 96 198 0.0 5.0 0.00 0.00 0.00 50 1012.7
20260904224602 96 75 1.0 9.0 0.00 0.00 0.00 49 1012.6
20260904224039 96 98 2.0 9.0 0.00 0.00 0.00 49 1012.7
20260904223539 97 94 2.0 9.0 0.00 0.00 0.00 48 1012.6
20260904223109 97 65 3.0 9.0 0.00 0.00 0.00 48 1012.6
20260904222536 97 82 2.0 8.0 0.00 0.00 0.00 48 1012.5
20260904222037 97 242 3.0 8.0 0.00 0.00 0.00 48 1012.7
20260904221607 98 114 2.0 4.0 0.00 0.00 0.00 48 1012.7
20260904221036 98 162 0.0 5.0 0.00 0.00 0.00 47 1012.5
20260904220539 97 150 1.0 5.0 0.00 0.00 0.00 47 1012.7
20260904220104 97 0 1.0 5.0 0.00 0.00 0.00 47 1012.7
20260904215537 97 135 1.0 3.0 0.00 0.00 0.00 47 1012.8
20260904215036 97 174 1.0 10.0 0.00 0.00 0.00 47 1012.8
20260904214607 97 204 1.0 10.0 0.00 0.00 0.00 47 1012.9
20260904214038 98 139 1.0 5.0 0.00 0.00 0.00 47 1013.0
20260904213538 98 0 1.0 3.0 0.00 0.00 0.00 47 1013.1
20260904213103 98 169 2.0 7.0 0.00 0.00 0.00 48 1013.1
20260904212539 97 111 2.0 7.0 0.00 0.00 0.00 48 1013.0
20260904212035 97 91 2.0 6.0 0.00 0.00 0.00 48 1013.2
20260904211619 98 158 1.0 8.0 0.00 0.00 0.00 48 1013.2
20260904211039 97 117 2.0 8.0 0.00 0.00 0.00 47 1013.2
20260904210539 98 51 1.0 4.0 0.00 0.00 0.00 47 1013.3
20260904210101 98 162 1.0 3.0 0.00 0.00 0.00 47 1013.3
20260904205539 98 0 1.0 3.0 0.00 0.00 0.00 46 1013.3
20260904205038 98 0 0.0 4.0 0.00 0.00 0.00 46 1013.5
20260904204557 99 101 1.0 7.0 0.00 0.00 0.00 46 1013.4
20260904204038 99 178 1.0 7.0 0.00 0.00 0.00 46 1013.5
20260904203538 99 158 2.0 7.0 0.00 0.00 0.00 46 1013.6
20260904203104 98 0 1.0 6.0 0.00 0.00 0.00 46 1013.6
20260904202538 98 202 2.0 6.0 0.00 0.00 0.00 45 1013.7
20260904202037 98 186 1.0 4.0 0.00 0.00 0.00 45 1013.8
20260904201604 99 219 1.0 4.0 0.00 0.00 0.00 46 1013.8
20260904201039 98 148 1.0 4.0 0.00 0.00 0.00 46 1013.9
20260904200539 97 202 1.0 3.0 0.00 0.00 0.00 47 1014.0
20260904200116 97 158 0.0 3.0 0.00 0.00 0.00 46 1014.1
20260904195541 97 0 0.0 3.0 0.00 0.00 0.00 46 1014.2
20260904195042 98 179 1.0 3.0 0.00 0.00 0.00 45 1014.4
20260904194606 97 169 0.0 3.0 0.00 0.00 0.00 47 1014.4
20260904194041 98 96 1.0 3.0 0.00 0.00 0.00 46 1014.4
20260904193541 97 0 0.0 2.0 0.00 0.00 0.00 47 1014.6
20260904193104 97 200 1.0 2.0 0.00 0.00 0.00 47 1014.7
20260904192541 97 254 0.0 4.0 0.00 0.00 0.00 48 1014.7
20260904192043 98 0 1.0 4.0 0.00 0.00 0.00 47 1014.7
20260904191559 98 274 1.0 4.0 0.00 0.00 0.00 48 1014.6
20260904191040 98 180 1.0 3.0 0.00 0.00 0.00 47 1014.7
20260904190543 97 151 1.0 4.0 0.00 0.00 0.00 48 1014.7
20260904190059 96 176 1.0 4.0 0.00 0.00 0.00 49 1014.9
20260904185540 97 30 2.0 4.0 0.00 0.00 0.00 48 1015.0
20260904185040 97 159 2.0 4.0 0.00 0.00 0.00 49 1015.1
20260904184610 97 96 1.0 3.0 0.00 0.00 0.00 49 1015.1
20260904184040 97 136 0.0 3.0 0.00 0.00 0.00 48 1015.2
20260904183537 97 172 1.0 4.0 0.00 0.00 0.00 47 1015.2
20260904183110 97 0 0.0 4.0 0.00 0.00 0.00 48 1015.2
20260904182544 96 163 1.0 4.0 0.00 0.00 0.00 48 1015.4
20260904182038 96 200 1.0 5.0 0.00 0.00 0.00 49 1015.5
20260904181607 96 169 2.0 5.0 0.00 0.00 0.00 49 1015.5
20260904181041 96 146 2.0 5.0 0.00 0.00 0.00 50 1015.5
20260904180540 96 167 2.0 4.0 0.00 0.00 0.00 50 1015.6
20260904180112 95 129 1.0 4.0 0.00 0.00 0.00 50 1015.7
20260904175540 96 180 1.0 3.0 0.00 0.00 0.00 51 1015.8
20260904175042 95 75 1.0 4.0 0.00 0.00 0.00 51 1015.8
20260904174602 95 61 2.0 4.0 0.00 0.00 0.00 52 1015.9
20260904174040 95 94 1.0 3.0 0.00 0.00 0.00 52 1016.1
20260904173540 95 232 0.0 3.0 0.00 0.00 0.00 52 1016.0
20260904173105 94 188 1.0 5.0 0.00 0.00 0.00 52 1016.2
20260904172540 94 0 0.0 5.0 0.00 0.00 0.00 52 1016.2
20260904172040 94 216 1.0 5.0 0.00 0.00 0.00 52 1016.3
20260904171605 93 129 1.0 4.0 0.00 0.00 0.00 51 1016.3
20260904171040 93 209 1.0 4.0 0.00 0.00 0.00 52 1016.4
20260904170541 93 197 1.0 4.0 0.00 0.00 0.00 52 1016.4
20260904170107 92 304 1.0 4.0 0.00 0.00 0.00 53 1016.4
20260904165540 92 194 2.0 5.0 0.00 0.00 0.00 53 1016.4
20260904165039 92 206 0.0 5.0 0.00 0.00 0.00 54 1016.4
20260904164604 92 146 1.0 3.0 0.00 0.00 0.00 57 1016.5
20260904164045 92 163 1.0 3.0 0.00 0.00 0.00 56 1016.5
20260904163540 92 153 1.0 3.0 0.00 0.00 0.00 58 1016.5
20260904163104 92 214 0.0 2.0 0.00 0.00 0.00 59 1016.6
20260904162538 91 144 0.0 2.0 0.00 0.00 0.00 60 1016.6
20260904162040 91 0 1.0 3.0 0.00 0.00 0.00 60 1016.6
20260904161604 90 169 1.0 3.0 0.00 0.00 0.00 62 1016.5
20260904161041 90 191 1.0 4.0 0.00 0.00 0.00 63 1016.5
20260904160540 89 202 1.0 4.0 0.00 0.00 0.00 63 1016.6
20260904160105 89 193 1.0 4.0 0.00 0.00 0.00 65 1016.6
20260904155540 89 212 1.0 4.0 0.00 0.00 0.00 66 1016.6
20260904155040 89 101 1.0 4.0 0.00 0.00 0.00 66 1016.5
20260904154603 88 238 1.0 4.0 0.00 0.00 0.00 67 1016.6
20260904154040 88 147 1.0 4.0 0.00 0.00 0.00 67 1016.6
20260904153541 88 211 1.0 4.0 0.00 0.00 0.00 68 1016.5
20260904153110 88 175 1.0 4.0 0.00 0.00 0.00 69 1016.4
20260904152541 87 193 0.0 4.0 0.00 0.00 0.00 72 1016.4
20260904152043 87 198 1.0 4.0 0.00 0.00 0.00 72 1016.4
20260904151606 86 174 1.0 4.0 0.00 0.00 0.00 74 1016.3
20260904151040 86 174 1.0 3.0 0.00 0.00 0.00 75 1016.2
20260904150540 85 0 0.0 3.0 0.00 0.00 0.00 77 1016.2
20260904150110 85 192 1.0 3.0 0.00 0.00 0.00 78 1016.2
20260904145541 84 124 0.0 2.0 0.00 0.00 0.00 80 1016.2
20260904145040 84 0 0.0 2.0 0.00 0.00 0.00 81 1016.2
20260904144601 83 135 0.0 2.0 0.00 0.00 0.00 82 1016.2
20260904144040 83 169 1.0 2.0 0.00 0.00 0.00 82 1016.3
20260904143541 83 232 0.0 2.0 0.00 0.00 0.00 84 1016.2
20260904143058 82 0 0.0 2.0 0.00 0.00 0.00 85 1016.3
20260904142540 82 191 0.0 2.0 0.00 0.00 0.00 86 1016.3
20260904142041 81 115 0.0 2.0 0.00 0.00 0.00 87 1016.2
20260904141614 80 0 0.0 1.0 0.00 0.00 0.00 88 1016.1
20260904141040 80 199 0.0 1.0 0.00 0.00 0.00 88 1016.2
20260904140540 80 0 0.0 1.0 0.00 0.00 0.00 89 1016.2
20260904140106 80 143 0.0 2.0 0.00 0.00 0.00 89 1016.2
20260904135540 79 0 0.0 2.0 0.00 0.00 0.00 90 1016.4
20260904135038 79 0 0.0 1.0 0.00 0.00 0.00 90 1016.4
20260904134605 79 195 0.0 1.0 0.00 0.00 0.00 91 1016.2
20260904134039 78 0 0.0 1.0 0.00 0.00 0.00 91 1016.3
20260904133539 78 0 0.0 1.0 0.00 0.00 0.00 91 1016.4
20260904133102 78 0 0.0 1.0 0.00 0.00 0.00 91 1016.4
20260904132541 78 0 0.0 1.0 0.00 0.00 0.00 91 1016.3
20260904132043 78 156 0.0 2.0 0.00 0.00 0.00 91 1016.2
20260904131639 77 191 0.0 2.0 0.00 0.00 0.00 92 1016.2
20260904131040 77 0 0.0 1.0 0.00 0.00 0.00 92 1016.3
20260904130540 77 151 0.0 2.0 0.00 0.00 0.00 92 1016.2
20260904130106 76 0 0.0 2.0 0.00 0.00 0.00 93 1016.0
20260904125540 76 0 0.0 2.0 0.00 0.00 0.00 93 1016.0
20260904125043 76 0 0.0 1.0 0.00 0.00 0.00 93 1015.8
20260904124600 76 0 0.0 1.0 0.00 0.00 0.00 93 1015.6
20260904124040 75 0 0.0 1.0 0.00 0.00 0.00 93 1015.7
20260904123540 75 0 0.0 1.0 0.00 0.00 0.00 93 1015.5
20260904123108 75 0 0.0 1.0 0.00 0.00 0.00 93 1015.5
20260904122541 75 0 0.0 1.0 0.00 0.00 0.00 93 1015.4
20260904122041 75 0 0.0 1.0 0.00 0.00 0.00 93 1015.4
20260904121600 75 0 0.0 1.0 0.00 0.00 0.00 93 1015.4
20260904121042 75 0 0.0 1.0 0.00 0.00 0.00 93 1015.3
20260904120542 75 0 0.0 1.0 0.00 0.00 0.00 93 1015.3
20260904120108 75 0 0.0 1.0 0.00 0.00 0.00 93 1015.3
20260904115541 75 0 0.0 0.0 0.00 0.00 0.00 92 1015.2
20260904115041 75 0 0.0 1.0 0.00 0.00 0.00 92 1015.2
20260904114602 75 156 0.0 1.0 0.00 0.00 0.00 92 1015.1
20260904114041 75 0 0.0 1.0 0.00 0.00 0.00 92 1015.0
20260904113543 75 0 0.0 1.0 0.00 0.00 0.00 92 1015.1
20260904113101 75 0 0.0 1.0 0.00 0.00 0.00 92 1015.1
20260904112540 75 0 0.0 1.0 0.00 0.00 0.00 91 1015.0
20260904112041 75 0 0.0 1.0 0.00 0.00 0.00 91 1015.1
20260904111602 75 0 0.0 0.0 0.00 0.00 0.00 91 1014.9
20260904111039 75 0 0.0 1.0 0.00 0.00 0.00 91 1014.8
20260904110540 75 0 0.0 1.0 0.00 0.00 0.00 91 1014.8
20260904110107 75 0 0.0 1.0 0.00 0.00 0.00 91 1015.0
20260904105540 75 0 0.0 1.0 0.00 0.00 0.00 90 1014.9
20260904105041 75 0 0.0 1.0 0.00 0.00 0.00 90 1015.0
20260904104612 75 0 0.0 1.0 0.00 0.00 0.00 90 1015.0
20260904104040 75 0 0.0 1.0 0.00 0.00 0.00 90 1015.0
20260904103539 75 83 0.0 1.0 0.00 0.00 0.00 90 1014.9
20260904103106 75 0 0.0 1.0 0.00 0.00 0.00 90 1014.7
20260904102541 75 84 0.0 1.0 0.00 0.00 0.00 90 1014.6
20260904102040 76 0 0.0 1.0 0.00 0.00 0.00 90 1014.6
20260904101606 76 0 0.0 1.0 0.00 0.00 0.00 90 1014.7
20260904101041 76 116 0.0 1.0 0.00 0.00 0.00 90 1014.6
20260904100543 76 0 0.0 0.0 0.00 0.00 0.00 89 1014.6
20260904100056 76 0 0.0 0.0 0.00 0.00 0.00 89 1014.4
20260904095540 76 0 0.0 0.0 0.00 0.00 0.00 89 1014.4
20260904095041 76 0 0.0 0.0 0.00 0.00 0.00 89 1014.4
20260904094605 76 0 0.0 0.0 0.00 0.00 0.00 89 1014.5
20260904094040 76 0 0.0 0.0 0.00 0.00 0.00 88 1014.4
20260904093540 76 0 0.0 1.0 0.00 0.00 0.00 88 1014.4
20260904093103 76 0 0.0 1.0 0.00 0.00 0.00 88 1014.5
20260904092539 76 0 0.0 0.0 0.00 0.00 0.00 88 1014.4
20260904092039 76 0 0.0 0.0 0.00 0.00 0.00 88 1014.6
20260904091604 77 0 0.0 0.0 0.00 0.00 0.00 88 1014.5
20260904091040 77 0 0.0 0.0 0.00 0.00 0.00 88 1014.6
20260904090537 77 0 0.0 1.0 0.00 0.00 0.00 88 1014.4
20260904090104 77 0 0.0 1.0 0.00 0.00 0.00 88 1014.6
20260904085537 77 0 0.0 1.0 0.00 0.00 0.00 88 1014.6
20260904085040 77 0 0.0 0.0 0.00 0.00 0.00 88 1014.6
20260904084602 77 0 0.0 0.0 0.00 0.00 0.00 87 1014.5
20260904084040 77 0 0.0 0.0 0.00 0.00 0.00 87 1014.5
20260904083544 77 0 0.0 0.0 0.00 0.00 0.00 87 1014.5
20260904083106 78 0 0.0 0.0 0.00 0.00 0.00 87 1014.3
20260904082538 78 0 0.0 0.0 0.00 0.00 0.00 87 1014.4